FW4300 Weather Reports


time (UTC)temp
C
wind
direction
speed
KPH
gust
KPH
rain 1hr
cm
rain 24hr
cm
rain mn
cm
humidity
%
barometer
mb
20260505113602 26 138 0.0 0.0 0.00 0.43 0.00 77 1018.0
20260505113201 26 113 0.0 0.0 0.00 0.43 0.00 77 1018.0
20260505112556 26 115 0.0 0.0 0.00 0.43 0.00 78 1017.8
20260505112055 26 172 0.0 0.0 0.00 0.43 0.00 79 1017.8
20260505111559 25 139 0.0 0.0 0.00 0.43 0.00 81 1017.8
20260505111052 25 107 0.0 0.0 0.00 0.43 0.00 82 1017.7
20260505110551 24 129 0.0 0.0 0.00 0.43 0.00 82 1017.6
20260505102038 -17 0.0 0.0 0.00 0.43 0.00 1017.3
20260505101543 -17 0.0 0.0 0.00 0.43 0.00 1017.2
20260505101035 -17 0.0 0.0 0.00 0.43 0.00 1017.2
20260505100535 -17 0.0 0.0 0.00 0.43 0.00 1017.2
20260505100033 -17 0.0 0.0 0.00 0.43 0.00 1017.1
20260505095531 -17 0.0 0.0 0.00 0.43 0.00 1017.2
20260505095030 -17 0.0 0.0 0.00 0.43 0.00 1017.1
20260505094529 -17 0.0 0.0 0.00 0.43 0.00 1017.0
20260505094025 -17 0.0 0.0 0.00 0.43 0.00 1017.0
20260505093523 -17 0.0 0.0 0.00 0.43 0.00 1017.0
20260505093021 -17 0.0 0.0 0.00 0.43 0.00 1017.0
20260505092520 -17 0.0 0.0 0.00 0.43 0.00 1017.0
20260505092019 -17 0.0 0.0 0.00 0.43 0.00 1017.0
20260505091527 -17 0.0 0.0 0.00 0.43 0.00 1017.0
20260505091014 -17 0.0 0.0 0.00 0.43 0.00 1017.0
20260505090512 -17 0.0 0.0 0.00 0.43 0.00 1016.9
20260505090012 -17 0.0 0.0 0.00 0.43 0.00 1016.8
20260505085510 -17 0.0 0.0 0.00 0.43 0.00 1016.7
20260505085009 -17 0.0 0.0 0.00 0.43 0.00 1016.7
20260505084512 -17 0.0 0.0 0.00 0.43 0.00 1016.7
20260505084007 -17 0.0 0.0 0.00 0.43 0.00 1016.7
20260505083502 -17 212 0.0 0.0 0.00 0.43 0.00 1016.5
20260505083004 -17 212 0.0 0.0 0.00 0.43 0.00 1016.5
20260505082600 -17 212 0.0 0.0 0.00 0.43 0.00 81 1016.5
20260505082100 23 212 0.0 0.0 0.00 0.43 0.00 81 1016.5
20260505081602 23 212 0.0 0.0 0.00 0.43 0.00 81 1016.5
20260505081059 23 212 0.0 0.0 0.00 0.43 0.00 81 1016.5
20260505080557 23 212 0.0 0.0 0.00 0.43 0.00 81 1016.4
20260505080057 23 212 0.0 0.0 0.00 0.43 0.00 81 1016.3
20260505075556 23 212 0.0 0.0 0.00 0.43 0.00 81 1016.4
20260505075055 23 212 0.0 0.0 0.00 0.43 0.00 81 1016.3
20260505074555 23 212 0.0 0.0 0.00 0.43 0.00 81 1016.3
20260505074054 23 212 0.0 0.0 0.00 0.43 0.00 81 1016.3
20260505073553 23 212 0.0 0.0 0.00 0.43 0.00 80 1016.3
20260505073058 23 212 0.0 0.0 0.00 0.43 0.00 80 1016.4
20260505072552 23 212 0.0 0.0 0.00 0.43 0.00 80 1016.4
20260505072052 23 212 0.0 0.0 0.00 0.43 0.00 80 1016.4
20260505071551 23 212 0.0 0.0 0.00 0.43 0.00 79 1016.4
20260505071050 23 178 0.0 0.0 0.00 0.43 0.00 79 1016.3
20260505070551 23 162 0.0 0.0 0.00 0.43 0.00 78 1016.3
20260505070149 23 162 0.0 0.0 0.00 0.43 0.00 78 1016.3
20260505065548 23 162 0.0 0.0 0.00 0.43 0.00 78 1016.3
20260505065047 23 168 0.0 0.0 0.00 0.43 0.00 78 1016.3
20260505064545 23 168 0.0 0.0 0.00 0.43 0.00 78 1016.4
20260505064047 23 131 0.0 0.0 0.00 0.43 0.00 77 1016.4
20260505063544 24 136 0.0 0.0 0.00 0.43 0.00 77 1016.5
20260505063043 24 117 0.0 0.0 0.00 0.43 0.00 77 1016.5
20260505062543 24 162 0.0 0.0 0.00 0.43 0.00 77 1016.5
20260505062043 24 162 0.0 0.0 0.00 0.43 0.00 76 1016.6
20260505061542 24 161 0.0 0.0 0.00 0.43 0.00 76 1016.5
20260505061041 24 161 0.0 0.0 0.00 0.43 0.00 76 1016.7
20260505060539 24 169 0.0 0.0 0.00 0.43 0.00 75 1016.7
20260505060039 24 169 0.0 0.0 0.00 0.43 0.00 75 1016.8
20260505055539 24 164 0.0 0.0 0.00 0.43 0.00 75 1016.9
20260505055040 24 162 0.0 0.0 0.00 0.43 0.00 75 1017.0
20260505054537 24 167 0.0 0.0 0.00 0.43 0.00 75 1017.0
20260505054036 24 129 0.0 0.0 0.00 0.43 0.00 75 1017.0
20260505053541 24 143 0.0 0.0 0.00 0.43 0.00 75 1017.1
20260505053035 24 149 0.0 0.0 0.00 0.43 0.00 75 1017.2
20260505052535 24 172 0.0 0.0 0.00 0.43 0.00 75 1017.3
20260505052034 24 143 0.0 0.0 0.00 0.43 0.00 75 1017.3
20260505051537 24 153 0.0 0.0 0.00 0.43 0.00 75 1017.3
20260505051034 24 168 0.0 0.0 0.00 0.43 0.00 75 1017.4
20260505050535 24 136 0.0 0.0 0.00 0.43 0.00 75 1017.5
20260505050104 24 170 0.0 0.0 0.00 0.43 0.00 75 1017.5
20260505041542 25 120 0.0 0.0 0.00 0.43 0.00 75 1017.8
20260505041024 25 150 0.0 0.0 0.00 0.43 0.00 75 1018.0
20260505040525 25 155 0.0 0.0 0.00 0.43 0.00 75 1018.0
20260505040021 25 159 0.0 0.0 0.00 0.43 0.00 75 1018.0
20260505035520 25 136 0.0 0.0 0.00 0.43 0.00 75 1018.1
20260505035020 25 176 0.0 0.0 0.00 0.43 0.00 75 1018.0
20260505034520 25 172 0.0 0.0 0.00 0.43 0.00 75 1018.1
20260505034022 25 137 0.0 0.0 0.00 0.43 0.00 75 1018.1
20260505033520 25 179 0.0 0.0 0.00 0.43 0.00 75 1018.2
20260505033020 25 203 0.0 0.0 0.00 0.43 0.00 75 1018.2
20260505032523 25 202 0.0 0.0 0.00 0.43 0.00 75 1018.3
20260505032020 25 203 0.0 0.0 0.00 0.43 0.00 75 1018.1
20260505031519 25 203 0.0 0.0 0.00 0.43 0.00 75 1018.1
20260505031019 25 174 0.0 0.0 0.00 0.43 0.00 74 1018.1
20260505030518 24 175 0.0 0.0 0.00 0.43 0.00 74 1018.2
20260505030020 24 190 0.0 0.0 0.00 0.43 0.00 74 1018.2
20260505025518 25 198 0.0 0.0 0.00 0.43 0.00 74 1018.1
20260505025018 25 198 0.0 0.0 0.00 0.43 0.00 74 1018.1
20260505024521 25 170 0.0 0.0 0.00 0.43 0.00 74 1018.1
20260505024017 25 129 0.0 0.0 0.00 0.43 0.00 73 1018.1
20260505023517 25 127 0.0 0.0 0.00 0.43 0.00 73 1018.1
20260505023017 25 121 0.0 0.0 0.00 0.43 0.00 73 1018.1
20260505022517 25 134 0.0 0.0 0.00 0.43 0.00 73 1018.1
20260505022017 25 136 0.0 0.0 0.00 0.43 0.00 72 1018.2
20260505021518 25 148 0.0 0.0 0.00 0.43 0.00 72 1018.2
20260505021016 25 143 0.0 0.0 0.00 0.43 0.00 72 1018.1
20260505020515 25 147 0.0 0.0 0.00 0.43 0.00 72 1018.2
20260505020018 25 167 0.0 0.0 0.00 0.43 0.00 72 1018.1
20260505015517 25 171 0.0 0.0 0.00 0.43 0.00 71 1018.1
20260505015017 25 149 0.0 0.0 0.00 0.43 0.00 71 1018.1
20260505014516 25 149 0.0 0.0 0.00 0.43 0.00 70 1018.0
20260505014015 25 171 0.0 0.0 0.00 0.43 0.00 70 1017.8
20260505013514 25 169 0.0 0.0 0.00 0.43 0.00 70 1017.9
20260505013019 25 135 0.0 0.0 0.00 0.43 0.00 70 1017.8
20260505012515 25 131 0.0 0.0 0.00 0.43 0.00 70 1017.6
20260505012014 25 130 0.0 0.0 0.00 0.43 0.00 69 1017.6
20260505011521 25 162 0.0 0.0 0.00 0.43 0.00 69 1017.5
20260505011016 25 142 0.0 0.0 0.00 0.43 0.00 69 1017.4
20260505010512 25 156 0.0 0.0 0.00 0.43 0.00 69 1017.4
20260505010013 25 172 0.0 0.0 0.00 0.43 0.00 69 1017.3
20260505005513 25 154 0.0 0.0 0.00 0.43 0.00 69 1017.3
20260505005014 25 176 0.0 0.0 0.00 0.43 0.00 69 1017.3
20260505004529 25 162 0.0 0.0 0.00 0.43 0.00 69 1017.3
20260505004012 25 183 0.0 0.0 0.00 0.43 0.00 69 1017.4
20260505003512 25 106 0.0 0.0 0.00 0.43 0.00 68 1017.4
20260505003012 25 136 0.0 0.0 0.00 0.43 0.00 69 1017.3
20260505002513 25 119 0.0 0.0 0.00 0.43 0.00 69 1017.4
20260505002012 25 137 0.0 0.0 0.00 0.43 0.00 69 1017.3
20260505001512 25 141 0.0 0.0 0.00 0.43 0.00 70 1017.3
20260505001011 25 122 0.0 0.0 0.00 0.43 0.00 69 1017.3
20260505000511 25 122 0.0 0.0 0.00 0.43 0.00 69 1017.4
20260505000015 25 166 0.0 0.0 0.00 0.43 0.00 69 1017.2
20260504235511 25 247 0.0 0.0 0.00 0.43 0.00 68 1017.0
20260504235011 25 213 0.0 0.0 0.00 0.43 0.00 68 1017.0
20260504234509 25 148 0.0 0.0 0.00 0.43 0.00 67 1016.9
20260504234009 25 143 0.0 0.0 0.00 0.43 0.00 67 1016.8
20260504233511 26 143 0.0 0.0 0.00 0.43 0.00 67 1016.9
20260504233009 26 143 0.0 0.0 0.00 0.43 0.00 66 1016.8
20260504232509 26 143 0.0 0.0 0.00 0.43 0.00 66 1016.8
20260504232008 26 145 0.0 0.0 0.00 0.43 0.00 66 1016.8
20260504231509 26 139 0.0 0.0 0.00 0.43 0.00 66 1016.8
20260504231009 26 127 0.0 0.0 0.00 0.43 0.00 66 1016.7
20260504230508 26 126 0.0 0.0 0.00 0.43 0.00 66 1016.7
20260504230015 26 127 0.0 0.0 0.00 0.43 0.00 66 1016.7
20260504225510 26 127 0.0 0.0 0.00 0.43 0.00 66 1016.5
20260504225008 26 105 0.0 0.0 0.00 0.43 0.00 66 1016.6
20260504224508 26 115 0.0 0.0 0.00 0.43 0.00 66 1016.6
20260504224007 26 106 0.0 0.0 0.00 0.43 0.00 66 1016.4
20260504223510 26 130 0.0 0.0 0.00 0.43 0.00 65 1016.4
20260504223008 26 105 0.0 0.0 0.00 0.43 0.00 65 1016.3
20260504222511 26 83 0.0 0.0 0.00 0.43 0.00 65 1016.2
20260504222013 26 101 0.0 0.0 0.00 0.43 0.00 65 1016.2
20260504221507 26 116 0.0 0.0 0.00 0.43 0.00 65 1016.1
20260504221007 26 106 0.0 0.0 0.00 0.43 0.00 64 1016.2
20260504220507 26 138 0.0 0.0 0.00 0.43 0.00 65 1016.1
20260504220007 26 129 0.0 0.0 0.00 0.43 0.00 64 1016.1
20260504215506 27 133 0.0 0.0 0.00 0.43 0.00 64 1016.0
20260504215009 27 126 0.0 0.0 0.00 0.43 0.00 64 1015.9
20260504214511 27 83 0.0 0.0 0.00 0.43 0.00 64 1015.9
20260504214008 27 129 0.0 0.0 0.00 0.43 0.00 64 1015.8
20260504213506 27 151 0.0 0.0 0.00 0.43 0.00 64 1015.8
20260504213020 27 115 0.0 0.0 0.00 0.43 0.00 65 1015.7
20260504212506 27 121 0.0 0.0 0.00 0.43 0.00 64 1015.6
20260504212005 27 118 0.0 0.0 0.00 0.43 0.00 65 1015.6
20260504211511 27 98 0.0 0.0 0.00 0.43 0.00 65 1015.5
20260504211004 27 126 0.0 0.0 0.00 0.43 0.00 66 1015.5
20260504204537 26 155 0.0 0.0 0.25 0.43 0.43 67 1015.6
20260504204040 26 75 0.0 0.0 0.33 0.43 0.43 66 1015.6
20260504203537 26 98 0.0 0.0 0.43 0.43 0.43 67 1015.7
20260504203037 26 111 0.0 0.0 0.43 0.43 0.43 66 1015.7
20260504202536 26 86 0.0 0.0 0.43 0.43 0.43 68 1015.8
20260504202035 26 115 0.0 0.0 0.43 0.43 0.43 69 1015.9
20260504201536 25 91 0.0 0.0 0.43 0.43 0.43 70 1015.9
20260504201034 25 130 0.0 0.0 0.43 0.43 0.43 71 1016.0
20260504200534 25 177 0.0 0.0 0.43 0.43 0.43 70 1016.0
20260504200033 26 96 0.0 0.0 0.43 0.43 0.43 69 1016.0
20260504195532 26 132 0.0 0.0 0.41 0.41 0.41 68 1016.0
20260504195034 26 165 0.0 0.0 0.33 0.33 0.33 66 1016.1
20260504194531 27 111 0.0 0.0 0.15 0.15 0.15 64 1016.1
20260504194030 28 133 0.0 0.0 0.08 0.08 0.08 62 1016.0
20260504193528 29 167 0.0 0.0 0.00 0.00 0.00 59 1015.8
20260504193027 29 180 0.0 0.0 0.00 0.00 0.00 60 1015.9
20260504192526 28 158 0.0 0.0 0.00 0.00 0.00 60 1015.8
20260504192028 28 108 0.0 0.0 0.00 0.00 0.00 60 1015.8
20260504191526 28 226 0.0 0.0 0.00 0.00 0.00 60 1015.9
20260504191025 28 212 0.0 0.0 0.00 0.00 0.00 60 1015.9
20260504190525 28 205 0.0 0.0 0.00 0.00 0.00 60 1016.0
20260504190026 28 221 0.0 0.0 0.00 0.00 0.00 59 1016.0
20260504185526 29 115 0.0 0.0 0.00 0.00 0.00 58 1016.0
20260504185023 29 80 0.0 0.0 0.00 0.00 0.00 58 1016.0
20260504184522 29 205 0.0 0.0 0.00 0.00 0.00 58 1016.1
20260504184022 29 188 0.0 0.0 0.00 0.00 0.00 57 1016.1
20260504183522 30 171 0.0 0.0 0.00 0.00 0.00 59 1016.1
20260504183023 30 134 0.0 0.0 0.00 0.00 0.00 58 1016.1
20260504182523 30 201 0.0 0.0 0.00 0.00 0.00 59 1016.1
20260504182025 30 143 0.0 0.0 0.00 0.00 0.00 58 1016.1
20260504181519 30 120 0.0 0.0 0.00 0.00 0.00 57 1016.2
20260504181018 30 182 0.0 0.0 0.00 0.00 0.00 59 1016.2
20260504180516 29 200 0.0 0.0 0.00 0.00 0.00 59 1016.4
20260504180015 30 137 0.0 0.0 0.00 0.00 0.00 57 1016.4
20260504175515 30 141 0.0 0.0 0.00 0.00 0.00 58 1016.7
20260504175018 29 237 0.0 0.0 0.00 0.00 0.00 58 1016.8
20260504174515 29 186 0.0 0.0 0.00 0.00 0.00 58 1016.8
20260504174017 29 179 0.0 0.0 0.00 0.00 0.00 59 1016.9
20260504173514 30 175 0.0 0.0 0.00 0.00 0.00 58 1016.9
20260504173025 30 174 0.0 0.0 0.00 0.00 0.00 56 1016.9
20260504172513 30 85 0.0 0.0 0.00 0.00 0.00 55 1016.8
20260504172013 30 171 0.0 0.0 0.00 0.00 0.00 56 1016.8
20260504171518 30 118 0.0 0.0 0.00 0.00 0.00 56 1016.9
20260504171013 30 158 0.0 0.0 0.00 0.00 0.00 56 1016.9
20260504170513 30 163 0.0 0.0 0.00 0.00 0.00 56 1016.9
20260504151006 29 123 0.0 0.0 0.00 0.00 0.00 58 1017.8
20260504150504 29 119 0.0 0.0 0.00 0.00 0.00 58 1017.8
20260504141058 28 183 0.0 0.0 0.00 0.00 0.00 58 1017.8
20260504140600 28 155 0.0 0.0 0.00 0.00 0.00 58 1017.8
20260504140110 28 124 0.0 0.0 0.00 0.00 0.00 58 1017.9
20260504130555 27 134 0.0 0.0 0.00 0.00 0.00 61 1017.9